Lapse_Rate
8.1 8.3 8.3 8.2 7.9 7.2 6.2 5.8 5.3 5.4 5.3 5.5 5.4 5.4 5.5 5.1 5.0 4.4 4.2 4.9 5.3 5.3 5.5 5.7 5.9 5.9 5.9 5.9 6.0 6.1 6.1 6.1 6.2 6.2 6.2 6.2 6.2 6.1 6.2 6.3 6.3 6.4 6.4 6.4 6.3 6.4 6.4 6.4 6.4
8.2 8.3 8.4 8.3 8.0 7.4 6.3 6.0 5.9 5.9 5.9 5.5 5.5 5.6 5.7 4.9 4.2 4.2 4.3 4.7 4.6 5.0 5.3 5.4 5.6 5.5 5.6 5.8 5.9 5.9 5.9 5.9 5.9 5.9 6.0 6.0 6.2 6.3 6.4 6.4 6.5 6.5 6.5 6.4 6.3 6.2 6.1 6.1 6.4
8.4 8.1 8.1 7.8 7.7 7.0 6.4 6.2 5.8 5.8 5.5 5.4 5.7 5.5 5.2 4.4 4.3 4.3 4.4 4.1 4.3 4.7 4.8 5.1 5.5 5.5 5.7 5.8 5.7 5.6 5.6 5.7 5.7 5.8 6.0 6.0 6.1 6.2 6.3 6.4 6.5 6.4 6.4 6.4 6.5 6.5 6.4 6.2 6.2
8.2 7.9 7.9 7.8 7.4 6.7 6.5 6.3 6.4 6.4 6.1 5.8 5.9 5.6 4.5 4.5 4.3 4.1 4.0 4.5 4.4 4.4 4.7 5.2 5.4 5.6 5.6 5.6 5.5 5.6 5.6 5.7 5.8 6.0 6.0 6.1 6.2 6.3 6.3 6.4 6.4 6.2 6.3 6.2 6.4 6.5 6.5 6.8 6.5
7.8 7.9 7.9 7.4 6.9 6.2 5.6 6.0 6.3 6.0 5.7 6.1 5.9 5.2 5.0 4.3 4.4 4.4 4.0 4.3 4.4 4.5 4.9 5.2 5.5 5.7 5.7 5.7 5.8 5.9 6.1 6.2 6.2 6.2 6.1 6.2 6.3 6.3 6.3 6.3 6.2 6.2 6.2 6.3 6.4 6.5 6.8 7.1 7.4
7.7 7.8 7.3 6.9 6.2 5.6 5.4 5.5 5.5 5.6 6.0 6.1 5.8 5.4 5.0 4.2 4.0 4.2 4.3 4.2 4.4 4.8 5.1 5.4 5.6 5.7 5.8 5.9 6.0 6.2 6.3 6.3 6.4 6.4 6.3 6.3 6.3 6.3 6.3 6.3 6.4 6.4 6.4 6.5 6.5 6.7 7.0 7.3 7.5
7.7 7.9 7.3 6.5 6.2 5.3 4.9 5.2 5.4 5.9 6.3 6.0 5.6 5.1 5.1 4.7 4.2 4.3 4.3 4.3 4.6 4.9 5.2 5.3 5.3 5.5 5.7 5.9 6.0 6.1 6.2 6.3 6.4 6.5 6.4 6.5 6.5 6.5 6.5 6.5 6.5 6.6 6.7 6.6 6.7 6.9 7.3 7.2 7.1
7.9 8.0 7.3 6.5 5.8 5.3 5.3 5.5 6.0 6.2 6.2 5.9 5.6 5.1 5.2 4.8 4.4 4.4 4.3 4.5 4.8 5.0 5.1 5.1 5.2 5.3 5.5 5.9 6.2 6.5 6.6 6.5 6.4 6.4 6.4 6.2 6.2 6.3 6.4 6.4 6.5 6.6 6.7 6.9 7.2 7.3 7.3 7.1 7.0
7.8 8.0 7.1 6.5 6.2 6.1 5.6 5.7 6.0 6.1 6.0 6.0 5.5 5.1 5.0 4.8 4.6 4.5 4.5 4.5 4.7 4.9 5.0 5.2 5.5 5.7 5.9 6.2 6.3 6.5 6.4 6.3 6.2 6.2 6.1 6.2 6.2 6.2 6.2 6.3 6.2 6.3 6.2 6.5 6.8 6.9 7.1 7.3 7.0
7.7 7.8 7.1 6.3 6.2 6.4 6.0 5.7 5.7 5.9 5.8 5.6 5.5 5.4 5.1 4.8 4.4 4.5 4.4 4.4 4.7 4.9 5.2 5.7 5.9 6.1 6.2 6.3 6.3 6.2 6.2 6.1 6.1 6.1 6.2 6.2 6.3 6.4 6.3 6.1 5.9 6.1 6.2 6.5 6.7 6.7 7.0 7.4 7.1
7.6 7.5 7.0 6.4 6.1 6.0 5.8 5.7 5.7 5.8 5.6 5.5 5.2 5.2 5.2 5.0 4.9 4.8 4.7 5.0 5.3 5.7 6.0 6.0 6.0 6.1 6.1 6.1 6.2 6.2 6.1 6.0 6.0 6.1 6.2 6.1 6.2 6.2 6.3 6.0 5.9 5.7 6.1 6.2 6.6 6.7 6.8 6.9 6.9
7.5 7.1 6.6 6.5 5.9 6.0 5.8 5.9 5.9 5.6 5.5 5.3 5.1 5.0 4.9 4.8 4.7 4.9 5.1 5.3 5.5 5.8 5.8 5.7 5.9 6.0 6.0 6.0 6.0 6.0 6.0 6.0 5.9 6.0 6.2 6.2 6.2 6.2 6.2 6.0 5.9 5.9 6.1 6.3 6.5 6.7 6.7 6.7 6.5
6.9 6.8 6.4 6.2 5.9 5.6 5.5 5.7 5.7 5.8 5.4 5.2 4.7 4.7 4.7 4.6 4.6 4.8 5.2 5.4 5.5 5.6 5.5 5.8 6.0 6.0 5.7 5.8 6.0 5.9 5.9 5.9 5.9 6.0 6.0 6.2 6.3 6.1 6.0 5.8 5.7 5.9 6.2 6.2 6.3 6.5 6.6 6.5 6.3
6.6 6.5 6.3 5.8 5.6 5.5 5.2 5.7 5.8 5.7 5.3 5.0 4.5 4.5 4.4 4.3 4.5 4.8 5.1 5.3 5.4 5.5 5.6 5.8 5.8 5.5 5.4 5.7 5.8 5.6 5.7 5.8 5.9 5.9 5.9 6.1 6.0 5.7 5.5 5.4 5.7 6.0 6.2 6.3 6.5 6.7 6.8 6.7 6.4
6.3 6.4 5.8 5.4 5.4 5.5 5.5 5.8 6.1 5.8 5.4 4.9 4.5 4.3 4.3 4.4 4.8 5.0 5.2 5.2 5.3 5.6 5.6 5.5 5.5 5.3 5.3 5.6 5.5 5.5 5.7 5.9 5.9 5.7 5.9 5.9 5.5 5.4 5.3 5.5 5.9 6.2 6.2 6.3 6.6 6.9 6.9 6.8 6.5
5.9 5.8 5.7 5.4 5.2 5.2 5.4 5.9 6.3 6.2 5.8 5.4 5.0 4.6 4.5 4.7 5.0 5.0 5.2 5.4 5.4 5.4 5.3 5.4 5.3 5.2 5.3 5.4 5.4 5.6 5.9 5.8 5.7 5.7 5.8 5.4 5.1 5.0 5.2 5.6 5.9 6.0 6.2 6.4 6.6 7.0 6.9 6.9 6.8
5.6 5.8 5.6 5.3 5.1 5.1 5.0 5.8 6.0 6.1 6.0 5.7 5.4 4.9 4.8 4.9 5.2 5.3 5.5 5.5 5.3 5.2 5.2 5.2 5.2 5.2 5.4 5.3 5.6 5.8 5.7 5.6 5.8 5.7 5.3 5.0 4.9 5.1 5.4 5.7 5.8 6.0 6.1 6.3 6.6 6.9 6.9 6.9 6.7
6.6 6.1 5.8 5.7 5.7 5.2 4.9 5.3 5.7 5.9 6.0 5.9 5.5 5.4 5.4 5.3 5.5 5.6 5.8 5.4 5.0 5.0 5.2 5.2 5.2 5.3 5.4 5.6 5.8 5.7 5.6 5.6 5.6 5.2 4.8 4.8 4.9 5.2 5.6 5.7 5.7 6.0 6.1 6.4 6.8 6.9 6.8 6.7 6.7
6.5 6.3 6.2 6.2 5.8 5.3 5.1 5.0 5.6 5.8 5.9 6.1 6.0 6.1 5.9 5.7 5.7 5.6 5.5 5.1 4.8 4.9 5.1 5.3 5.5 5.5 5.8 5.9 5.7 5.5 5.6 5.5 5.1 4.8 4.7 4.7 5.1 5.5 5.6 5.7 5.8 5.9 6.0 6.4 6.7 6.7 6.6 6.5 6.6
6.4 6.5 6.6 6.2 5.8 5.3 5.0 5.1 5.6 5.9 6.1 6.1 6.0 6.0 5.8 5.6 5.4 5.5 5.2 4.9 4.8 4.9 5.3 5.5 5.5 5.7 5.9 5.7 5.6 5.6 5.4 5.1 4.8 4.6 4.5 5.0 5.3 5.5 5.5 5.7 5.8 5.8 6.1 6.4 6.5 6.6 6.7 6.4 6.5
6.5 6.6 6.7 6.5 5.9 5.5 5.3 5.0 5.7 6.2 6.4 6.2 6.1 6.0 5.8 5.6 5.4 5.3 5.0 4.7 4.8 5.0 5.5 5.7 5.6 5.7 5.6 5.5 5.3 5.2 4.9 4.6 4.5 4.5 4.9 5.2 5.4 5.5 5.5 5.7 5.7 5.8 6.0 6.2 6.4 6.4 6.4 6.5 6.4
6.6 6.8 6.6 6.3 5.8 5.5 5.6 4.6 5.9 6.5 6.5 6.3 6.1 5.9 5.6 5.3 5.2 5.1 4.9 4.7 4.9 5.1 5.6 5.5 5.4 5.4 5.3 5.3 5.3 5.0 4.9 4.8 4.5 4.6 4.9 5.2 5.3 5.4 5.5 5.6 5.6 5.7 5.9 6.1 6.2 6.2 6.0 6.1 6.2
6.7 6.7 6.2 5.9 5.8 5.5 5.6 4.8 5.8 6.4 6.7 7.0 6.7 6.1 5.7 5.4 5.3 5.1 4.9 4.8 4.9 5.3 5.5 5.3 5.2 5.2 5.2 5.3 5.0 4.8 4.7 4.5 4.5 4.8 4.9 5.1 5.2 5.4 5.6 5.6 5.6 5.7 6.0 5.9 6.0 5.9 5.9 5.8 5.8
6.8 6.6 6.3 6.1 5.8 4.8 6.0 5.6 6.1 6.3 6.7 6.7 6.6 6.2 5.9 5.6 5.4 5.2 4.9 4.9 5.0 5.4 5.3 5.2 5.0 5.0 5.2 5.0 4.8 4.8 4.6 4.4 4.7 4.8 5.1 5.3 5.4 5.5 5.5 5.6 5.7 5.8 5.7 5.8 5.6 5.5 5.6 5.4 5.1
6.7 6.5 6.2 5.3 4.8 4.5 5.8 5.2 6.9 6.6 6.6 6.8 6.5 6.1 5.9 5.8 5.5 5.2 5.0 4.9 5.1 5.3 5.2 5.0 4.9 5.1 5.1 4.8 4.7 4.7 4.5 4.6 4.8 5.1 5.3 5.4 5.5 5.6 5.7 5.6 5.5 5.6 5.5 5.4 5.3 5.1 5.1 4.9 4.6
6.8 6.6 6.8 5.7 4.5 5.0 5.9 5.9 7.0 6.9 7.0 6.9 6.9 6.7 6.2 5.7 5.4 5.1 4.9 5.0 5.2 5.1 5.0 4.9 5.0 5.1 4.8 4.7 4.7 4.6 4.7 4.8 4.8 5.1 5.3 5.5 5.6 5.7 5.5 5.5 5.3 5.3 5.3 5.1 5.0 4.7 4.6 4.4 4.3
6.7 6.6 6.9 6.5 5.7 4.8 5.9 6.4 7.4 7.2 6.9 6.9 6.8 6.4 6.3 6.0 5.3 5.0 5.0 5.0 5.0 5.0 4.8 5.0 5.0 4.9 4.7 4.7 4.7 4.6 4.6 4.8 5.2 5.2 5.4 5.6 5.6 5.5 5.4 5.4 5.4 5.3 5.1 5.0 4.9 4.7 4.6 4.5 4.5
6.8 6.9 6.6 6.7 5.7 5.3 5.3 6.0 7.3 7.0 6.8 6.7 6.6 6.4 6.2 5.9 5.3 5.1 5.1 5.0 5.0 4.9 4.8 4.9 4.9 4.8 4.7 4.6 4.5 4.5 4.6 5.0 5.3 5.3 5.6 5.6 5.6 5.6 5.6 5.6 5.5 5.3 5.2 5.1 5.0 4.9 4.8 4.9 4.9
6.9 6.8 6.8 6.8 6.4 5.3 4.5 6.1 6.9 6.9 6.7 6.7 6.5 6.4 6.1 5.7 5.4 5.3 5.1 4.9 4.8 4.8 4.7 4.8 4.8 4.7 4.6 4.5 4.4 4.4 4.8 5.2 5.3 5.6 5.6 5.6 5.7 5.6 5.7 5.6 5.4 5.4 5.4 5.2 5.3 5.5 5.9 6.2 6.5
7.0 6.9 7.0 6.9 6.3 6.2 5.8 6.3 7.0 6.8 6.7 6.6 6.6 6.4 5.9 5.7 5.4 5.1 4.9 4.8 4.7 4.6 4.6 4.8 4.7 4.7 4.5 4.4 4.4 4.6 5.0 5.2 5.5 5.6 5.7 5.7 5.8 5.7 5.7 5.6 5.6 5.6 5.8 6.1 6.8 7.2 7.1 7.1 7.3
Wind_Speed
3 13 3 3 5 7 3 5 3 5 5 5 10 13 16 12 8 6 7 12 16 17 22 24 25 26 28 29 30 29 30 29 29 30 31 31 30 30 29 28 28 29 29 29 29 28 27 29 27
6 5 3 3 5 5 3 4 5 8 11 4 8 8 10 10 12 8 6 13 15 19 21 25 28 26 29 27 29 29 29 29 29 30 29 29 29 29 28 27 27 27 27 26 26 25 26 26 26
4 2 4 5 4 3 4 4 13 10 3 1 5 8 5 6 11 5 9 13 18 18 22 27 29 27 26 28 28 29 29 29 29 29 30 30 30 29 28 27 27 26 26 24 23 23 23 24 25
3 5 5 5 6 5 6 6 8 6 4 9 7 8 7 18 4 8 13 15 18 18 20 27 28 28 27 26 28 28 28 28 29 30 30 30 29 29 28 27 27 28 26 25 25 24 24 23 22
4 4 6 5 5 3 4 5 1 4 4 6 3 7 8 10 17 15 13 17 13 16 21 23 27 28 27 26 26 28 28 29 29 29 30 30 29 28 26 27 26 27 26 26 26 25 25 25 23
5 4 5 4 3 2 3 4 7 15 16 14 10 8 5 5 12 8 11 12 17 16 19 22 23 26 27 25 27 28 28 28 29 29 29 29 28 27 25 25 26 27 26 26 26 26 26 26 24
7 5 5 5 5 4 4 4 7 5 6 4 9 6 5 6 6 7 10 16 19 20 20 19 21 22 25 24 26 28 30 30 30 30 28 28 25 24 24 25 25 25 26 26 26 25 25 25 25
5 5 5 4 5 4 3 3 3 5 3 9 10 7 7 7 6 7 9 11 15 19 19 20 21 22 20 20 23 26 29 28 27 27 29 27 24 24 24 23 25 24 25 26 26 26 25 24 24
4 5 4 8 9 6 5 5 5 5 6 6 6 9 12 10 7 7 10 12 10 11 17 18 20 21 21 19 20 21 22 25 25 24 26 21 21 22 23 24 25 24 25 25 25 25 24 26 23
5 5 8 6 6 8 5 4 7 5 9 13 16 12 11 10 7 11 11 10 12 12 12 17 17 18 17 16 16 17 18 17 19 21 19 18 17 20 20 21 23 23 24 23 24 23 23 21 19
4 4 6 3 10 9 7 5 4 16 4 5 19 13 10 10 10 11 10 8 7 7 8 13 15 17 18 14 14 12 14 14 16 20 19 18 16 16 16 16 18 19 23 20 21 19 17 17 17
8 9 5 6 8 7 5 6 5 4 5 11 12 12 8 11 9 8 8 7 6 7 8 11 15 14 15 13 12 13 14 14 15 17 20 16 15 16 16 15 16 17 19 19 19 17 18 16 17
10 4 7 11 12 8 10 6 5 5 11 11 12 10 11 10 10 8 7 6 5 8 6 7 13 14 13 13 12 13 12 13 14 16 19 19 16 15 15 14 15 16 18 18 18 18 18 16 16
9 14 8 8 8 5 11 12 5 3 9 11 10 8 7 9 7 6 6 5 7 6 6 6 13 15 15 12 15 13 13 12 14 15 18 19 16 16 13 13 13 14 17 17 17 15 15 12 14
14 14 8 4 3 5 12 2 6 11 9 11 8 8 8 7 6 6 5 7 6 5 6 6 10 15 15 13 14 12 12 13 13 14 17 18 17 16 13 12 12 14 16 16 16 14 14 9 13
6 5 5 4 5 7 1 3 7 9 13 9 9 8 8 6 6 6 6 6 6 5 5 5 12 13 13 14 13 11 13 12 13 14 13 16 17 18 15 13 13 17 15 15 13 8 9 9 10
2 4 3 3 8 5 3 2 12 9 12 12 10 8 9 7 7 5 6 5 6 5 5 7 8 7 11 13 13 12 11 13 13 11 12 15 17 18 16 15 15 16 13 14 11 8 9 9 10
7 4 4 8 10 6 6 7 14 13 13 12 10 8 8 7 5 5 5 4 6 6 5 6 5 8 11 11 9 10 10 11 14 13 14 16 15 17 13 15 16 15 11 9 9 11 9 7 9
6 5 7 4 6 7 11 6 18 13 9 9 8 9 7 7 5 5 4 5 6 6 5 6 6 6 5 2 3 3 3 3 6 13 17 16 16 15 15 14 15 16 8 9 8 10 12 9 11
3 4 3 3 3 8 7 6 8 11 7 11 12 10 10 7 6 5 4 5 5 4 5 5 5 6 4 3 2 2 2 2 4 13 15 15 15 16 16 14 12 13 7 9 9 11 9 9 9
2 4 4 4 4 3 5 3 5 5 4 7 7 7 8 10 9 5 4 4 3 3 4 3 4 5 6 8 6 4 4 3 3 4 6 13 15 15 15 14 13 12 11 7 8 10 11 9 9
3 5 6 8 5 3 3 5 5 7 10 10 11 12 10 9 6 5 5 3 2 1 1 3 4 5 6 10 4 5 2 3 3 3 5 11 16 15 14 14 14 12 12 8 7 9 7 7 9
2 5 5 3 4 2 2 2 5 8 11 12 12 13 10 9 9 7 6 4 3 1 2 2 4 6 6 7 5 4 4 2 3 3 6 6 13 16 16 15 14 13 12 11 8 10 8 6 5
7 6 8 5 3 2 5 7 5 5 10 8 10 12 12 10 8 7 5 4 2 2 2 2 5 5 5 5 6 6 5 5 4 5 5 5 5 10 14 15 12 14 13 11 10 10 9 8 7
6 6 2 3 2 6 2 3 7 4 4 9 16 13 12 11 9 7 7 5 3 2 1 2 5 5 5 6 6 6 6 6 6 5 4 6 5 5 7 12 12 12 14 14 13 9 9 8 7
4 6 5 5 3 4 1 5 4 2 7 6 10 11 12 10 8 7 6 5 5 4 3 4 5 4 5 5 5 5 5 3 4 4 4 4 4 6 11 11 12 13 15 14 13 9 8 8 6
4 3 4 5 2 2 3 5 1 4 6 8 10 12 11 10 9 8 6 5 4 4 2 4 4 4 4 4 4 6 5 6 5 6 7 4 8 10 11 11 12 13 14 14 15 6 7 6 4
2 5 3 3 2 4 4 4 4 4 6 7 10 12 11 10 8 6 5 5 4 4 3 4 4 3 2 4 5 4 5 6 7 8 7 7 10 11 9 10 12 13 13 14 11 7 6 7 5
2 1 5 4 4 4 2 5 5 6 10 13 11 11 13 11 9 7 5 4 4 4 4 4 4 3 4 5 4 5 5 6 8 6 8 9 11 11 7 9 11 10 9 13 8 9 9 9 8
3 6 6 4 4 1 3 6 0 5 7 9 10 12 10 9 9 7 6 6 5 5 4 4 3 4 3 3 4 5 6 6 7 7 9 12 8 12 9 9 10 9 9 12 8 10 10 10 10
Wind_Direction
174 145 128 68 62 65 46 8 83 51 56 60 78 80 73 41 40 73 51 36 23 34 36 42 46 51 50 51 51 50 48 47 47 45 42 40 38 36 33 32 33 29 28 24 22 25 23 20 21
132 139 80 80 78 67 345 338 66 98 128 143 59 61 63 82 69 87 63 36 39 46 40 43 45 47 51 49 51 49 47 46 44 41 39 37 34 33 30 31 27 25 22 20 17 16 17 14 17
142 55 68 71 72 89 113 81 117 122 136 92 92 36 39 1 58 72 67 63 53 42 44 43 43 45 47 49 52 49 46 42 40 38 35 33 31 30 28 28 26 21 17 16 15 15 16 14 13
102 22 43 67 72 2 122 135 128 121 50 37 88 64 68 359 64 89 74 61 56 37 36 43 45 47 47 52 50 48 44 42 38 36 34 30 28 24 24 23 20 17 15 14 14 12 7 6 9
38 57 58 74 48 43 48 119 259 72 73 30 57 76 83 51 74 71 62 54 52 40 35 38 43 46 48 53 49 47 45 42 38 34 30 26 23 21 21 19 18 16 12 11 10 6 6 6 6
48 87 66 81 60 61 46 87 89 95 104 103 90 96 65 53 67 59 61 57 51 47 38 35 38 43 45 51 47 46 43 40 36 32 29 25 22 21 21 19 16 13 11 9 10 7 5 4 2
101 73 122 118 136 84 162 101 115 116 102 56 137 93 108 81 84 85 72 62 50 42 39 31 28 34 42 47 47 44 40 37 33 29 24 22 22 22 20 17 14 10 11 7 7 4 4 2 1
104 86 108 134 177 146 151 83 78 68 39 141 143 146 160 144 127 90 67 54 51 41 34 28 27 24 35 37 45 45 41 36 32 26 22 19 20 21 18 16 13 11 11 7 4 2 1 2 358
103 75 145 170 157 155 141 121 32 34 84 29 50 99 121 141 133 77 60 50 47 42 35 26 26 23 26 43 50 46 41 37 32 26 21 20 15 14 15 11 14 11 12 9 6 2 0 360 356
71 102 169 174 157 142 100 90 135 96 104 89 93 95 98 93 83 74 58 52 45 36 31 23 21 21 27 43 49 49 40 36 32 25 20 19 20 20 18 10 11 9 9 8 7 4 3 1 351
33 130 143 61 116 103 107 64 102 127 78 128 139 131 120 103 79 78 72 63 55 43 40 24 22 22 26 28 50 45 41 36 30 26 23 18 15 10 10 7 4 2 0 -0 359 357 357 355 349
90 35 83 121 100 101 105 105 72 64 129 130 129 123 107 95 95 97 91 74 64 55 46 25 22 24 25 32 51 40 42 37 33 26 21 14 10 6 7 4 1 358 354 350 353 351 347 349 350
81 96 52 89 87 76 89 69 126 82 106 115 117 106 110 110 106 99 93 83 70 59 48 35 31 27 24 33 41 49 44 39 33 28 21 15 12 4 3 2 1 356 353 347 346 345 343 342 347
98 90 89 79 86 112 116 130 91 227 128 121 117 108 106 109 115 103 83 75 60 52 40 50 39 33 35 30 34 43 48 39 34 28 22 16 13 6 5 0 2 357 354 351 343 336 338 334 329
105 92 66 52 84 107 129 173 154 151 137 129 121 114 101 89 82 88 103 90 81 57 30 46 50 35 36 31 31 45 47 45 36 29 23 17 16 11 4 -0 354 352 350 350 346 339 335 334 329
90 65 108 243 176 184 277 252 155 156 144 143 134 124 113 99 94 87 90 91 75 65 52 49 43 30 32 33 33 42 49 47 40 27 20 17 12 11 7 1 351 343 349 349 345 345 343 339 337
344 149 153 173 214 141 193 251 175 164 158 160 151 139 135 115 91 87 85 89 82 68 57 53 36 24 29 27 35 45 53 47 38 25 17 14 11 5 4 358 348 343 351 349 344 345 351 346 343
180 178 178 185 205 189 174 246 177 178 170 172 152 147 135 126 133 108 96 89 74 59 50 53 35 24 27 21 28 39 43 36 29 20 13 7 1 -0 353 355 347 350 351 349 343 348 346 334 344
139 154 178 205 201 153 195 195 186 180 167 162 161 154 143 134 133 111 108 78 71 55 53 46 29 21 29 349 352 17 10 2 11 13 11 7 359 355 358 356 351 350 342 353 343 348 348 354 348
107 134 183 89 125 178 164 214 188 189 195 181 167 160 152 144 141 123 97 65 58 69 52 37 35 34 28 15 359 15 320 357 4 3 1 4 3 1 3 354 347 342 336 352 351 356 354 347 349
158 181 175 148 127 84 121 310 180 197 158 145 153 148 153 164 154 148 116 80 58 75 50 38 40 46 34 29 23 2 1 346 350 342 352 352 359 359 354 351 346 343 348 344 347 354 356 348 352
191 173 126 127 113 218 125 273 249 198 192 183 165 164 166 159 148 148 128 102 131 132 347 24 46 39 37 34 35 35 30 0 321 312 324 342 350 351 350 344 345 344 346 342 340 347 345 347 350
116 89 113 123 102 88 194 357 262 153 214 202 178 173 166 159 155 150 146 156 191 160 282 342 40 40 36 46 44 37 22 328 313 328 339 336 339 345 345 347 343 346 346 338 336 346 352 351 340
145 63 39 49 80 315 231 168 255 192 237 188 176 175 161 152 141 136 150 164 170 272 317 23 44 43 50 47 37 37 16 348 354 345 342 332 324 323 336 347 347 346 343 340 335 341 347 348 346
73 76 333 342 353 229 78 124 259 258 270 186 179 168 159 145 142 155 170 186 184 211 354 69 64 55 47 43 33 19 10 2 351 339 323 326 328 327 330 340 342 342 339 338 340 344 344 345 340
165 156 162 225 212 264 279 238 262 308 293 177 164 142 132 139 154 172 181 181 188 201 86 73 69 62 40 32 21 15 8 354 340 325 316 318 325 324 327 340 340 339 339 343 348 342 334 340 328
182 187 177 107 34 43 262 288 169 42 44 96 126 140 147 153 168 173 171 184 191 179 98 100 93 73 45 27 25 14 0 356 332 324 326 327 328 335 341 349 342 338 339 346 349 329 325 327 308
157 154 76 15 228 265 284 278 255 259 200 162 170 163 153 156 164 161 173 172 177 153 121 98 100 97 60 39 28 9 345 342 336 340 344 338 336 337 343 351 344 338 335 340 339 337 326 336 319
121 143 57 115 137 189 299 267 203 234 198 195 182 164 159 168 165 164 172 160 149 137 130 124 108 93 56 38 9 2 346 346 353 351 345 343 339 343 348 354 347 339 333 336 342 341 344 339 324
186 182 150 134 211 108 149 271 135 275 214 173 163 156 161 160 156 159 163 159 145 150 145 121 101 81 61 32 10 358 355 354 359 352 349 351 349 350 344 352 348 339 333 331 339 344 345 340 335